Regional Weather Roundup
Issued by NWS

Home | Current Version | Previous Version | Text Only | Print | Product List | Glossary Off
Versions: 1 2 3 4 5 6 7 8 9 10 11 12 13 14 15 16 17 18 19 20 21 22 23 24 25 26 27 28 29 30 31 32 33 34 35 36 37 38 39 40 41 42 43 44 45 46 47 48 49 50

000
ASUS43 KOAX 050902
RWRNE

WEATHER ROUNDUP FOR NEBRASKA
NATIONAL WEATHER SERVICE OMAHA NE
400 AM CDT SAT SEP 05 2015

NOTES: SATELLITE DATA IS BEING USED TO AUGMENT CLOUD COVER ABOVE
       12000 FEET.
       "FAIR" INDICATES FEW OR NO CLOUDS BELOW 12,000 FEET WITH NO
       SIGNIFICANT WEATHER AND/OR OBSTRUCTIONS TO VISIBILITY.

  * THESE STATIONS DO NOT REPORT WEATHER SUCH AS RAIN...SNOW OR FOG.

NEZ001>004-019>022-054>056-051000-
NEBRASKA PANHANDLE

CITY           SKY/WX    TMP DP  RH WIND       PRES   REMARKS
SCOTTSBLUFF    CLOUDY    70  55  59 CALM      29.86F
ALLIANCE       LGT RAIN  69  57  65 NE5       29.85S
CHADRON        CLOUDY    69  53  56 W5        29.81S
KIMBALL        CLOUDY    67  53  59 CALM      29.90S
SIDNEY         CLOUDY    66  61  84 NW5       29.88S
$$

NEZ057>060-069>072-079>082-051000-
SOUTHWEST NEBRASKA

CITY           SKY/WX    TMP DP  RH WIND       PRES   REMARKS
NORTH PLATTE   MOCLDY    72  59  63 E7        29.83S
IMPERIAL       MOCLDY    77  54  44 S12       29.84S
LEXINGTON      CLEAR     75  62  64 S12       29.85S
MCCOOK         CLEAR     78  58  49 S15       29.84S
$$

NEZ005>010-023>029-035>040-094-051000-
NORTH CENTRAL NEBRASKA

CITY           SKY/WX    TMP DP  RH WIND       PRES   REMARKS
VALENTINE      MOCLDY    72  61  68 SE5       29.82R
BROKEN BOW     MOCLDY    70  63  78 E5        29.85S
ORD            PTCLDY    74  62  66 S8        29.84S
$$

NEZ041-046>049-061>064-073>077-083>087-051000-
SOUTH CENTRAL NEBRASKA

CITY           SKY/WX    TMP DP  RH WIND       PRES   REMARKS
GRAND ISLAND   CLEAR     74  65  73 S15       29.88S
AURORA         CLEAR     73  68  84 S15       29.89S
HASTINGS       CLEAR     75  64  68 S9        29.89S
HEBRON         CLEAR     75  66  75 S7        29.92R
HOLDREGE       CLEAR     74  60  61 S10G16    29.88S
KEARNEY *      CLEAR     73  61  64 S14       29.87S
YORK           PTCLDY    73  68  83 S10       29.90S
$$

NEZ011>018-030>034-042>045-051000-
NORTHEAST NEBRASKA

CITY           SKY/WX    TMP DP  RH WIND       PRES   REMARKS
NORFOLK        CLEAR     75  67  76 S14G23    29.86S
ALBION         CLEAR     73  65  78 SE7       29.87S
BLAIR          MOCLDY    75  67  77 S16       29.92S
COLUMBUS *     PTCLDY    75  64  69 S10       29.88S
FREMONT        PTCLDY    76  68  76 SE9       29.90S
TEKAMAH        MOCLDY    74  70  87 SE8       29.90S
$$

NEZ050>053-065>068-078-088>093-051000-
SOUTHEAST NEBRASKA

CITY           SKY/WX    TMP DP  RH WIND       PRES   REMARKS
LINCOLN        PTCLDY    78  69  73 S15       29.91S
OMAHA EPPLEY   MOCLDY    76  69  79 S13       29.92S
BEATRICE       PTCLDY    75  69  82 S9        29.94R
FALLS CITY     CLEAR     75  69  81 S9        29.95S
NEBRASKA CITY  PTCLDY    73  66  79 S10       29.95S
PLATTSMOUTH    PTCLDY    73  67  82 SE9       29.94S
$$

NEZ044-045-051>053-067-051000-
OMAHA AREA

CITY           SKY/WX    TMP DP  RH WIND       PRES   REMARKS
OMAHA EPPLEY   MOCLDY    76  69  79 S13       29.92S
BLAIR          MOCLDY    75  67  77 S16       29.92S
FREMONT        PTCLDY    76  68  76 SE9       29.90S
OFFUTT AFB     PTCLDY    74  69  85 SE8       29.92S
PLATTSMOUTH    PTCLDY    73  67  82 SE9       29.94S
WAHOO          FAIR      72  69  91 S9        29.91S
$$



USA.gov is the U.S. government's official web portal to all federal, state and local government web resources and services.